![]() |
EMODnet Physics ERDDAP
Easier access to scientific data |
log in|
Brought to you by EMODnet Physics |
| Dataset Title: | NDBC - Collection of dew point temperature (DEWT) TimeSeries - IN SITU MultiPointTimeSeriesObservation
|
| Institution: | NDBC (Dataset ID: TS_DEWT_NDBC) |
| Information: | Summary
| License
| FGDC
| ISO 19115
| Metadata
| Background
| Subset
| Data Access Form
| Make a graph
|
| Name | Last modified | Size | Description | |
|---|---|---|---|---|
| Parent Directory | - | - | ||
| GCTF1_TS_DEWT_012019.nc | 26-Dec-2024 09:20 | 429812 | ||
| GCTF1_TS_DEWT_012020.nc | 26-Dec-2024 09:24 | 429806 | ||
| GCTF1_TS_DEWT_012021.nc | 26-Dec-2024 09:29 | 429494 | ||
| GCTF1_TS_DEWT_012022.nc | 26-Dec-2024 09:33 | 431702 | ||
| GCTF1_TS_DEWT_012023.nc | 26-Dec-2024 09:37 | 429331 | ||
| GCTF1_TS_DEWT_022019.nc | 26-Dec-2024 09:20 | 429472 | ||
| GCTF1_TS_DEWT_022020.nc | 26-Dec-2024 09:24 | 425654 | ||
| GCTF1_TS_DEWT_022021.nc | 26-Dec-2024 09:29 | 429121 | ||
| GCTF1_TS_DEWT_022022.nc | 26-Dec-2024 09:33 | 429453 | ||
| GCTF1_TS_DEWT_022023.nc | 26-Dec-2024 09:38 | 425382 | ||
| GCTF1_TS_DEWT_032019.nc | 26-Dec-2024 09:20 | 429475 | ||
| GCTF1_TS_DEWT_032020.nc | 26-Dec-2024 09:25 | 429493 | ||
| GCTF1_TS_DEWT_032021.nc | 26-Dec-2024 09:29 | 429292 | ||
| GCTF1_TS_DEWT_032022.nc | 26-Dec-2024 09:34 | 429494 | ||
| GCTF1_TS_DEWT_032023.nc | 26-Dec-2024 09:38 | 429295 | ||
| GCTF1_TS_DEWT_042019.nc | 26-Dec-2024 09:21 | 425365 | ||
| GCTF1_TS_DEWT_042020.nc | 26-Dec-2024 09:25 | 429492 | ||
| GCTF1_TS_DEWT_042021.nc | 26-Dec-2024 09:30 | 428973 | ||
| GCTF1_TS_DEWT_042022.nc | 26-Dec-2024 09:34 | 422700 | ||
| GCTF1_TS_DEWT_042023.nc | 26-Dec-2024 09:38 | 435170 | ||
| GCTF1_TS_DEWT_052019.nc | 26-Dec-2024 09:21 | 449780 | ||
| GCTF1_TS_DEWT_052020.nc | 26-Dec-2024 09:26 | 429765 | ||
| GCTF1_TS_DEWT_052021.nc | 26-Dec-2024 09:30 | 429796 | ||
| GCTF1_TS_DEWT_052022.nc | 26-Dec-2024 09:34 | 429818 | ||
| GCTF1_TS_DEWT_052023.nc | 26-Dec-2024 09:39 | 429791 | ||
| GCTF1_TS_DEWT_062019.nc | 26-Dec-2024 09:21 | 429619 | ||
| GCTF1_TS_DEWT_062020.nc | 26-Dec-2024 09:26 | 429688 | ||
| GCTF1_TS_DEWT_062021.nc | 26-Dec-2024 09:30 | 427448 | ||
| GCTF1_TS_DEWT_062022.nc | 26-Dec-2024 09:35 | 429529 | ||
| GCTF1_TS_DEWT_062023.nc | 26-Dec-2024 09:39 | 424709 | ||
| GCTF1_TS_DEWT_072019.nc | 26-Dec-2024 09:22 | 429691 | ||
| GCTF1_TS_DEWT_072020.nc | 26-Dec-2024 09:26 | 429787 | ||
| GCTF1_TS_DEWT_072021.nc | 26-Dec-2024 09:31 | 429834 | ||
| GCTF1_TS_DEWT_072022.nc | 26-Dec-2024 09:35 | 425646 | ||
| GCTF1_TS_DEWT_072023.nc | 26-Dec-2024 09:40 | 429733 | ||
| GCTF1_TS_DEWT_082018.nc | 26-Dec-2024 09:18 | 429839 | ||
| GCTF1_TS_DEWT_082019.nc | 26-Dec-2024 09:22 | 441674 | ||
| GCTF1_TS_DEWT_082020.nc | 26-Dec-2024 09:27 | 492443 | ||
| GCTF1_TS_DEWT_082021.nc | 26-Dec-2024 09:31 | 447896 | ||
| GCTF1_TS_DEWT_082022.nc | 26-Dec-2024 09:35 | 450380 | ||
| GCTF1_TS_DEWT_082023.nc | 26-Dec-2024 09:40 | 425792 | ||
| GCTF1_TS_DEWT_082024.nc | 09-Jan-2025 12:20 | 429494 | ||
| GCTF1_TS_DEWT_092018.nc | 26-Dec-2024 09:18 | 429328 | ||
| GCTF1_TS_DEWT_092019.nc | 26-Dec-2024 09:23 | 429362 | ||
| GCTF1_TS_DEWT_092020.nc | 26-Dec-2024 09:27 | 429333 | ||
| GCTF1_TS_DEWT_092021.nc | 26-Dec-2024 09:32 | 428823 | ||
| GCTF1_TS_DEWT_092022.nc | 26-Dec-2024 09:36 | 429490 | ||
| GCTF1_TS_DEWT_092023.nc | 26-Dec-2024 09:40 | 429472 | ||
| GCTF1_TS_DEWT_092024.nc | 10-Jan-2025 22:31 | 425921 | ||
| GCTF1_TS_DEWT_102018.nc | 26-Dec-2024 09:19 | 429472 | ||
| GCTF1_TS_DEWT_102019.nc | 26-Dec-2024 09:23 | 429493 | ||
| GCTF1_TS_DEWT_102020.nc | 26-Dec-2024 09:28 | 429450 | ||
| GCTF1_TS_DEWT_102021.nc | 26-Dec-2024 09:32 | 424188 | ||
| GCTF1_TS_DEWT_102022.nc | 26-Dec-2024 09:36 | 429489 | ||
| GCTF1_TS_DEWT_102023.nc | 26-Dec-2024 09:41 | 429493 | ||
| GCTF1_TS_DEWT_102024.nc | 11-Jan-2025 23:58 | 449750 | ||
| GCTF1_TS_DEWT_112018.nc | 26-Dec-2024 09:19 | 3809959 | ||
| GCTF1_TS_DEWT_112019.nc | 26-Dec-2024 09:23 | 444977 | ||
| GCTF1_TS_DEWT_112020.nc | 26-Dec-2024 09:28 | 422028 | ||
| GCTF1_TS_DEWT_112021.nc | 26-Dec-2024 09:32 | 429816 | ||
| GCTF1_TS_DEWT_112022.nc | 26-Dec-2024 09:37 | 429394 | ||
| GCTF1_TS_DEWT_112023.nc | 26-Dec-2024 09:41 | 423120 | ||
| GCTF1_TS_DEWT_122018.nc | 26-Dec-2024 09:19 | 424630 | ||
| GCTF1_TS_DEWT_122019.nc | 26-Dec-2024 09:24 | 429784 | ||
| GCTF1_TS_DEWT_122020.nc | 26-Dec-2024 09:28 | 429834 | ||
| GCTF1_TS_DEWT_122021.nc | 26-Dec-2024 09:32 | 429814 | ||
| GCTF1_TS_DEWT_122022.nc | 26-Dec-2024 09:37 | 420990 | ||
| GCTF1_TS_DEWT_122023.nc | 29-Dec-2024 11:28 | 429443 | ||